datetime,flow
1977-06-01,0.88
1977-06-02,0.91
1977-06-03,1.0
1977-06-04,1.1
1977-06-05,1.2
1977-06-06,1.2
1977-06-07,1.7000000000000002
1977-06-08,2.0
1977-06-09,2.2
1977-06-10,2.2
1977-06-11,2.3
1977-06-12,2.4
1977-06-13,2.3
1977-06-14,2.3
1977-06-15,2.2
1977-06-16,2.2
1977-06-17,2.2
1977-06-18,2.1
1977-06-19,2.0
1977-06-20,1.9
1977-06-21,1.9
1977-06-22,1.9
1977-06-23,1.7000000000000002
1977-06-24,1.7000000000000002
1977-06-25,1.7000000000000002
1977-06-26,1.6
1977-06-27,1.5
1977-06-28,1.4
1977-06-29,1.4
1977-06-30,1.3
1977-07-01,1.3
1977-07-02,1.3
1977-07-03,1.2
1977-07-04,1.2
1977-07-05,1.2
1977-07-06,1.1
1977-07-07,1.1
1977-07-08,1.1
1977-07-09,1.1
1977-07-10,1.0
1977-07-11,0.99
1977-07-12,0.99
1977-07-13,0.9500000000000001
1977-07-14,0.9500000000000001
1977-07-15,0.9500000000000001
1977-07-16,0.9500000000000001
1977-07-17,0.91
1977-07-18,0.88
1977-07-19,0.88
1977-07-20,0.88
1977-07-21,0.88
1977-07-22,0.84
1977-07-23,0.8
1977-07-24,0.84
1977-07-25,0.77
1977-07-26,0.77
1977-07-27,0.77
1977-07-28,0.77
1977-07-29,0.7000000000000001
1977-07-30,0.74
1977-07-31,0.7000000000000001
1977-08-01,0.7000000000000001
1977-08-02,0.74
1977-08-03,0.77
1977-08-04,0.67
1977-08-05,0.7000000000000001
1977-08-06,0.7000000000000001
1977-08-07,0.7000000000000001
1977-08-08,0.7000000000000001
1977-08-09,0.7000000000000001
1977-08-10,0.7000000000000001
1977-08-11,0.67
1977-08-12,0.67
1977-08-13,0.64
1977-08-14,0.67
1977-08-15,0.64
1977-08-16,0.67
1977-08-17,0.64
1977-08-18,0.64
1977-08-19,0.64
1977-08-20,0.62
1977-08-21,0.64
1977-08-22,0.59
1977-08-23,0.62
1977-08-24,0.62
1977-08-25,0.59
1977-08-26,0.62
1977-08-27,0.62
1977-08-28,0.56
1977-08-29,0.62
1977-08-30,0.59
1977-08-31,0.59
1977-09-01,0.56
1977-09-02,0.56
1977-09-03,0.51
1977-09-04,0.49
1977-09-05,0.54
1977-09-06,0.56
1977-09-07,0.54
1977-09-08,0.51
1977-09-09,0.54
1977-09-10,0.51
1977-09-11,0.54
1977-09-12,0.54
1977-09-13,0.54
1977-09-14,0.51
1977-09-15,0.51
1977-09-16,0.54
1977-09-17,0.54
1977-09-18,0.54
1977-09-19,0.56
1977-09-20,0.54
1977-09-21,0.54
1977-09-22,0.51
1977-09-23,0.56
1977-09-24,0.51
1977-09-25,0.51
1977-09-26,0.51
1977-09-27,0.51
1977-09-28,0.54
1977-09-29,0.51
1977-09-30,0.51
1977-10-01,0.56
1977-10-02,0.51
1977-10-03,0.51
1977-10-04,0.51
1977-10-05,0.51
1977-10-06,0.51
1977-10-07,0.51
1977-10-08,0.48
1977-10-09,0.48
1977-10-10,0.48
1977-10-11,0.45
1977-10-12,0.48
1977-10-13,0.45
1977-10-14,0.45
1977-10-15,0.43
1977-10-16,0.45
1977-10-17,0.45
1977-10-18,0.43
1977-10-19,0.41000000000000003
1977-10-20,0.41000000000000003
1977-10-21,0.41000000000000003
1977-10-22,0.41000000000000003
1977-10-23,0.41000000000000003
1977-10-24,0.41000000000000003
1977-10-25,0.39
1977-10-26,0.39
1977-10-27,0.39
1977-10-28,0.39
1977-10-29,0.41000000000000003
1977-10-30,0.39
1977-10-31,0.39
1977-11-01,0.39
1977-11-02,0.39
1977-11-03,0.39
1977-11-04,0.39
1977-11-05,0.41000000000000003
1977-11-06,0.41000000000000003
1977-11-07,0.39
1977-11-08,0.39
1977-11-09,0.39
1977-11-10,0.39
1977-11-11,0.39
1977-11-12,0.39
1977-11-13,0.39
1977-11-14,0.39
1977-11-15,0.39
1977-11-16,0.37
1977-11-17,0.39
1977-11-18,0.39
1977-11-19,0.37
1977-11-20,0.37
1977-11-21,0.41000000000000003
1977-11-22,0.41000000000000003
1977-11-23,0.43
1977-11-24,0.53
1977-11-25,0.59
1977-11-26,0.96
1977-11-27,1.3
1977-11-28,1.6
1977-11-29,1.7000000000000002
1977-11-30,1.7000000000000002
1977-12-01,1.7000000000000002
1977-12-02,1.7000000000000002
1977-12-03,1.9
1977-12-04,1.9
1977-12-05,2.1
1977-12-06,2.1
1977-12-07,2.3
1977-12-08,2.2
1977-12-09,2.3
1977-12-10,2.3
1977-12-11,2.2
1977-12-12,2.2
1977-12-13,2.3
1977-12-14,2.6
1977-12-15,3.1
1977-12-16,4.1
1977-12-17,4.8
1977-12-18,5.1
1977-12-19,5.2
1977-12-20,5.2
1977-12-21,5.1
1977-12-22,5.0
1977-12-23,4.9
1977-12-24,4.8
1977-12-25,4.5
1977-12-26,4.4
1977-12-27,4.2
1977-12-28,4.1
1977-12-29,3.9
1977-12-30,3.9
1977-12-31,3.8
1978-01-01,3.6
1978-01-02,3.5
1978-01-03,3.4
1978-01-04,3.4
1978-01-05,3.4
1978-01-06,3.4
1978-01-07,3.2
1978-01-08,3.3
1978-01-09,3.1
1978-01-10,3.1
1978-01-11,3.1
1978-01-12,3.0
1978-01-13,2.8
1978-01-14,2.9
1978-01-15,2.8
1978-01-16,2.8
1978-01-17,2.8
1978-01-18,2.7
1978-01-19,2.6
1978-01-20,2.6
1978-01-21,2.6
1978-01-22,2.5
1978-01-23,2.5
1978-01-24,2.1
1978-01-25,2.1
1978-01-26,2.2
1978-01-27,2.1
1978-01-28,2.2
1978-01-29,2.1
1978-01-30,2.0
1978-01-31,2.0
1978-02-01,2.1
1978-02-02,2.1
1978-02-03,2.2
1978-02-04,2.2
1978-02-05,2.1
1978-02-06,2.0
1978-02-07,1.8
1978-02-08,1.9
1978-02-09,1.9
1978-02-10,1.9
1978-02-11,1.9
1978-02-12,1.9
1978-02-13,1.7000000000000002
1978-02-14,1.7000000000000002
1978-02-15,1.8
1978-02-16,1.7000000000000002
1978-02-17,1.7000000000000002
1978-02-18,1.7000000000000002
1978-02-19,1.6
1978-02-20,1.6
1978-02-21,1.5
1978-02-22,1.6
1978-02-23,1.5
1978-02-24,1.5
1978-02-25,1.5
1978-02-26,1.5
1978-02-27,1.3
1978-02-28,1.4
1978-03-01,1.5
1978-03-02,1.5
1978-03-03,1.5
1978-03-04,1.5
1978-03-05,1.5
1978-03-06,1.4
1978-03-07,1.5
1978-03-08,1.5
1978-03-09,1.5
1978-03-10,1.3
1978-03-11,1.4
1978-03-12,1.3
1978-03-13,1.3
1978-03-14,1.3
1978-03-15,1.3
1978-03-16,1.3
1978-03-17,1.3
1978-03-18,1.3
1978-03-19,1.2
1978-03-20,1.3
1978-03-21,1.3
1978-03-22,1.5
1978-03-23,1.5
1978-03-24,1.6
1978-03-25,1.6
1978-03-26,1.6
1978-03-27,1.6
1978-03-28,1.7000000000000002
1978-03-29,1.8
1978-03-30,1.9
1978-03-31,2.1
1978-04-01,2.1
1978-04-02,2.2
1978-04-03,2.3
1978-04-04,2.5
1978-04-05,2.5
1978-04-06,2.5
1978-04-07,2.5
1978-04-08,2.4
1978-04-09,2.4
1978-04-10,2.3
1978-04-11,2.3
1978-04-12,2.2
1978-04-13,2.3
1978-04-14,2.4
1978-04-15,2.5
1978-04-16,2.5
1978-04-17,2.5
1978-04-18,2.5
1978-04-19,2.5
1978-04-20,2.5
1978-04-21,2.5
1978-04-22,2.4
1978-04-23,2.5
1978-04-24,2.4
1978-04-25,2.3
1978-04-26,2.3
1978-04-27,2.2
1978-04-28,2.2
1978-04-29,2.2
1978-04-30,2.1
1978-05-01,2.1
1978-05-02,2.1
1978-05-03,2.1
1978-05-04,2.2
1978-05-05,2.2
1978-05-06,2.3
1978-05-07,2.3
1978-05-08,2.4
1978-05-09,2.5
1978-05-10,2.7
1978-05-11,2.8
1978-05-12,2.9
1978-05-13,2.9
1978-05-14,3.0
1978-05-15,3.2
1978-05-16,3.4
1978-05-17,3.3
1978-05-18,3.3
1978-05-19,3.4
1978-05-20,3.7
1978-05-21,4.2
1978-05-22,4.4
1978-05-23,4.5
1978-05-24,4.8
1978-05-25,4.9
1978-05-26,5.0
1978-05-27,5.0
1978-05-28,5.0
1978-05-29,5.0
1978-05-30,5.0
1978-05-31,5.0
1978-06-01,5.1
1978-06-02,5.2
1978-06-03,5.2
1978-06-04,5.7
1978-06-05,6.3
1978-06-06,6.6
1978-06-07,7.2
1978-06-08,7.9
1978-06-09,8.3
1978-06-10,8.3
1978-06-11,8.8
1978-06-12,8.6
1978-06-13,8.6
1978-06-14,8.5
1978-06-15,8.3
1978-06-16,8.2
1978-06-17,8.2
1978-06-18,8.0
1978-06-19,7.9
1978-06-20,7.9
1978-06-21,7.9
1978-06-22,7.7
1978-06-23,8.0
1978-06-24,8.2
1978-06-25,8.2
1978-06-26,8.0
1978-06-27,7.9
1978-06-28,7.9
1978-06-29,7.9
1978-06-30,7.7
1978-07-01,7.6
1978-07-02,7.6
1978-07-03,7.5
1978-07-04,7.3
1978-07-05,7.3
1978-07-06,7.2
1978-07-07,7.2
1978-07-08,7.2
1978-07-09,7.0
1978-07-10,7.0
1978-07-11,6.9
1978-07-12,6.9
1978-07-13,6.9
1978-07-14,6.6
1978-07-15,6.6
1978-07-16,6.5
1978-07-17,6.5
1978-07-18,6.4
1978-07-19,6.4
1978-07-20,6.1
1978-07-21,6.1
1978-07-22,6.0
1978-07-23,6.0
1978-07-24,6.0
1978-07-25,5.7
1978-07-26,5.4
1978-07-27,5.2
1978-07-28,5.1
1978-07-29,5.0
1978-07-30,4.4
1978-07-31,4.3
1978-08-01,4.3
1978-08-02,4.3
1978-08-03,4.1
1978-08-04,4.1
1978-08-05,4.0
1978-08-06,4.0
1978-08-07,3.9
1978-08-08,3.9
1978-08-09,3.9
1978-08-10,3.8
1978-08-11,3.8
1978-08-12,3.8
1978-08-13,3.7
1978-08-14,3.6
1978-08-15,3.4
1978-08-16,3.3
1978-08-17,3.3
1978-08-18,3.2
1978-08-19,3.2
1978-08-20,3.1
1978-08-21,3.1
1978-08-22,3.1
1978-08-23,3.1
1978-08-24,3.0
1978-08-25,3.0
1978-08-26,3.0
1978-08-27,3.0
1978-08-28,2.9
1978-08-29,3.2
1978-08-30,3.3
1978-08-31,3.2
1978-09-01,3.1
1978-09-02,3.1
1978-09-03,3.0
1978-09-04,2.9
1978-09-05,3.0
1978-09-06,2.9
1978-09-07,3.0
1978-09-08,2.9
1978-09-09,2.9
1978-09-10,2.8
1978-09-11,2.8
1978-09-12,2.7
1978-09-13,2.7
1978-09-14,2.7
1978-09-15,2.6
1978-09-16,2.6
1978-09-17,2.5
1978-09-18,2.5
1978-09-19,2.4
1978-09-20,2.4
1978-09-21,2.3
1978-09-22,2.3
1978-09-23,2.2
1978-09-24,2.2
1978-09-25,2.1
1978-09-26,2.1
1978-09-27,2.1
1978-09-28,2.1
1978-09-29,2.0
1978-09-30,2.0
1978-10-01,1.8
1978-10-02,1.8
1978-10-03,1.8
1978-10-04,1.8
1978-10-05,1.8
1978-10-06,1.7000000000000002
1978-10-07,1.7000000000000002
1978-10-08,1.6
1978-10-09,1.7000000000000002
1978-10-10,1.6
1978-10-11,1.6
1978-10-12,1.6
1978-10-13,1.6
1978-10-14,1.6
1978-10-15,1.6
1978-10-16,1.6
1978-10-17,1.6
1978-10-18,1.5
1978-10-19,1.6
1978-10-20,1.6
1978-10-21,1.5
1978-10-22,1.5
1978-10-23,1.6
1978-10-24,1.5
1978-10-25,1.5
1978-10-26,1.5
1978-10-27,1.5
1978-10-28,1.5
1978-10-29,1.5
1978-10-30,1.5
1978-10-31,1.5
1978-11-01,1.4
1978-11-02,1.5
1978-11-03,1.4
1978-11-04,1.3
1978-11-05,1.3
1978-11-06,1.3
1978-11-07,1.3
1978-11-08,1.3
1978-11-09,1.3
1978-11-10,1.2
1978-11-11,1.3
1978-11-12,1.2
1978-11-13,1.3
1978-11-14,1.2
1978-11-15,1.3
1978-11-16,1.2
1978-11-17,1.3
1978-11-18,1.2
1978-11-19,1.2
1978-11-20,1.2
1978-11-21,1.2
1978-11-22,1.2
1978-11-23,1.2
1978-11-24,1.2
1978-11-25,1.2
1978-11-26,1.2
1978-11-27,1.2
1978-11-28,1.2
1978-11-29,1.2
1978-11-30,1.1
1978-12-01,1.1
1978-12-02,1.2
1978-12-03,1.1
1978-12-04,1.2
1978-12-05,1.2
1978-12-06,1.2
1978-12-07,1.2
1978-12-08,1.2
1978-12-09,1.2
1978-12-10,1.3
1978-12-11,1.3
1978-12-12,1.2
1978-12-13,1.3
1978-12-14,1.2
1978-12-15,1.2
1978-12-16,1.2
1978-12-17,1.2
1978-12-18,1.2
1978-12-19,1.2
1978-12-20,1.1
1978-12-21,1.1
1978-12-22,1.2
1978-12-23,1.2
1978-12-24,1.2
1978-12-25,1.2
1978-12-26,1.1
1978-12-27,1.0
1978-12-28,1.0
1978-12-29,1.1
1978-12-30,1.1
1978-12-31,1.1
1979-01-01,1.1
1979-01-02,1.0
1979-01-03,0.96
1979-01-04,1.0
1979-01-05,0.96
1979-01-06,1.0
1979-01-07,0.96
1979-01-08,0.92
1979-01-09,0.96
1979-01-10,1.0
1979-01-11,1.0
1979-01-12,1.0
1979-01-13,1.0
1979-01-14,1.2
1979-01-15,1.2
1979-01-16,1.2
1979-01-17,1.2
1979-01-18,1.1
1979-01-19,1.2
1979-01-20,1.2
1979-01-21,1.2
1979-01-22,1.2
1979-01-23,1.2
1979-01-24,1.2
1979-01-25,1.2
1979-01-26,1.1
1979-01-27,1.1
1979-01-28,1.2
1979-01-29,1.2
1979-01-30,1.2
1979-01-31,1.2
1979-02-01,1.2
1979-02-02,1.1
1979-02-03,1.1
1979-02-04,1.2
1979-02-05,1.1
1979-02-06,1.2
1979-02-07,1.1
1979-02-08,1.1
1979-02-09,1.0
1979-02-10,1.1
1979-02-11,1.1
1979-02-12,1.0
1979-02-13,1.1
1979-02-14,1.1
1979-02-15,1.1
1979-02-16,1.0
1979-02-17,0.96
1979-02-18,1.1
1979-02-19,1.2
1979-02-20,1.1
1979-02-21,1.1
1979-02-22,1.0
1979-02-23,1.0
1979-02-24,1.0
1979-02-25,1.0
1979-02-26,0.96
1979-02-27,0.96
1979-02-28,0.96
1979-03-01,0.96
1979-03-02,0.92
1979-03-03,0.96
1979-03-04,0.92
1979-03-05,0.92
1979-03-06,0.89
1979-03-07,0.92
1979-03-08,0.92
1979-03-09,0.92
1979-03-10,0.96
1979-03-11,0.92
1979-03-12,0.86
1979-03-13,0.89
1979-03-14,0.96
1979-03-15,1.0
1979-03-16,1.0
1979-03-17,1.1
1979-03-18,1.1
1979-03-19,1.0
1979-03-20,1.1
1979-03-21,1.1
1979-03-22,1.1
1979-03-23,1.0
1979-03-24,1.1
1979-03-25,1.1
1979-03-26,1.0
1979-03-27,1.0
1979-03-28,1.0
1979-03-29,1.1
1979-03-30,1.0
1979-03-31,1.0
1979-04-01,1.0
1979-04-02,0.89
1979-04-03,0.8200000000000001
1979-04-04,0.89
1979-04-05,0.86
1979-04-06,0.86
1979-04-07,0.96
1979-04-08,0.96
1979-04-09,0.92
1979-04-10,0.92
1979-04-11,0.96
1979-04-12,0.96
1979-04-13,1.0
1979-04-14,1.0
1979-04-15,1.0
1979-04-16,1.0
1979-04-17,1.0
1979-04-18,1.0
1979-04-19,1.0
1979-04-20,1.0
1979-04-21,1.1
1979-04-22,1.1
1979-04-23,1.0
1979-04-24,1.1
1979-04-25,1.1
1979-04-26,1.1
1979-04-27,1.0
1979-04-28,1.1
1979-04-29,1.2
1979-04-30,1.2
1979-05-01,1.2
1979-05-02,1.2
1979-05-03,1.4
1979-05-04,1.6
1979-05-05,1.8
1979-05-06,2.0
1979-05-07,2.1
1979-05-08,2.1
1979-05-09,2.5
1979-05-10,2.8
1979-05-11,2.7
1979-05-12,2.7
1979-05-13,2.7
1979-05-14,2.8
1979-05-15,2.9
1979-05-16,3.1
1979-05-17,3.6
1979-05-18,3.8
1979-05-19,4.0
1979-05-20,4.1
1979-05-21,4.6
1979-05-22,5.4
1979-05-23,6.2
1979-05-24,6.5
1979-05-25,6.8
1979-05-26,6.8
1979-05-27,7.1
1979-05-28,7.1
1979-05-29,7.1
1979-05-30,7.1
1979-05-31,6.8
1979-06-01,6.8
1979-06-02,6.8
1979-06-03,6.5
1979-06-04,6.5
1979-06-05,6.5
1979-06-06,6.5
1979-06-07,6.5
1979-06-08,6.5
1979-06-09,6.5
1979-06-10,6.5
1979-06-11,6.5
1979-06-12,6.8
1979-06-13,6.5
1979-06-14,6.5
1979-06-15,6.5
1979-06-16,6.5
1979-06-17,6.2
1979-06-18,6.2
1979-06-19,5.9
1979-06-20,5.9
1979-06-21,5.9
1979-06-22,5.9
1979-06-23,5.9
1979-06-24,5.9
1979-06-25,5.6
1979-06-26,5.1
1979-06-27,4.9
1979-06-28,5.1
1979-06-29,4.9
1979-06-30,4.9
1979-07-01,4.8
1979-07-02,4.8
1979-07-03,4.7
1979-07-04,4.6
1979-07-05,4.5
1979-07-06,4.5
1979-07-07,4.4
1979-07-08,4.3
1979-07-09,4.2
1979-07-10,4.1
1979-07-11,4.1
1979-07-12,4.0
1979-07-13,3.9
1979-07-14,3.9
1979-07-15,3.9
1979-07-16,3.7
1979-07-17,3.6
1979-07-18,3.5
1979-07-19,3.4
1979-07-20,3.4
1979-07-21,3.3
1979-07-22,3.3
1979-07-23,3.3
1979-07-24,3.3
1979-07-25,3.2
1979-07-26,3.2
1979-07-27,3.1
1979-07-28,3.0
1979-07-29,3.0
1979-07-30,3.0
1979-07-31,2.9
1979-08-01,2.8
1979-08-02,2.8
1979-08-03,2.8
1979-08-04,2.7
1979-08-05,2.7
1979-08-06,2.6
1979-08-07,2.6
1979-08-08,2.5
1979-08-09,2.5
1979-08-10,2.4
1979-08-11,2.4
1979-08-12,2.4
1979-08-13,2.5
1979-08-14,2.4
1979-08-15,2.3
1979-08-16,2.4
1979-08-17,2.3
1979-08-18,2.3
1979-08-19,2.3
1979-08-20,2.3
1979-08-21,2.3
1979-08-22,2.3
1979-08-23,2.3
1979-08-24,2.3
1979-08-25,2.4
1979-08-26,2.4
1979-08-27,2.4
1979-08-28,2.4
1979-08-29,2.4
1979-08-30,2.4
1979-08-31,2.4
1979-09-01,2.4
1979-09-02,2.4
1979-09-03,2.4
1979-09-04,2.4
1979-09-05,2.4
1979-09-06,2.4
1979-09-07,2.4
1979-09-08,2.3
1979-09-09,2.4
1979-09-10,2.2
1979-09-11,2.0
1979-09-12,2.0
1979-09-13,2.0
1979-09-14,1.9
1979-09-15,1.9
1979-09-16,1.9
1979-09-17,1.9
1979-09-18,1.8
1979-09-19,1.8
1979-09-20,1.8
1979-09-21,1.8
1979-09-22,1.7000000000000002
1979-09-23,1.8
1979-09-24,1.8
1979-09-25,1.6
1979-09-26,1.6
1979-09-27,1.6
1979-09-28,1.6
1979-09-29,1.6
1979-09-30,1.5
1979-10-01,1.5
1979-10-02,1.6
1979-10-03,1.5
1979-10-04,1.5
1979-10-05,1.5
1979-10-06,1.5
1979-10-07,1.5
1979-10-08,1.5
1979-10-09,1.5
1979-10-10,1.4
1979-10-11,1.4
1979-10-12,1.4
1979-10-13,1.5
1979-10-14,1.4
1979-10-15,1.5
1979-10-16,1.4
1979-10-17,1.4
1979-10-18,1.4
1979-10-19,1.5
1979-10-20,1.4
1979-10-21,1.5
1979-10-22,1.4
1979-10-23,1.5
1979-10-24,1.5
1979-10-25,1.4
1979-10-26,1.5
1979-10-27,1.5
1979-10-28,1.5
1979-10-29,1.5
1979-10-30,1.5
1979-10-31,1.4
1979-11-01,1.5
1979-11-02,1.5
1979-11-03,1.4
1979-11-04,1.5
1979-11-05,1.5
1979-11-06,1.4
1979-11-07,1.4
1979-11-08,1.4
1979-11-09,1.4
1979-11-10,1.4
1979-11-11,1.4
1979-11-12,1.4
1979-11-13,1.4
1979-11-14,1.3
1979-11-15,1.4
1979-11-16,1.4
1979-11-17,1.3
1979-11-18,1.4
1979-11-19,1.4
1979-11-20,1.4
1979-11-21,1.3
1979-11-22,1.3
1979-11-23,1.4
1979-11-24,1.4
1979-11-25,1.4
1979-11-26,1.4
1979-11-27,1.4
1979-11-28,1.5
1979-11-29,1.4
1979-11-30,1.4
1979-12-01,1.4
1979-12-02,1.5
1979-12-03,1.4
1979-12-04,1.5
1979-12-05,1.5
1979-12-06,1.4
1979-12-07,1.5
1979-12-08,1.5
1979-12-09,1.5
1979-12-10,1.5
1979-12-11,1.5
1979-12-12,1.5
1979-12-13,1.6
1979-12-14,1.6
1979-12-15,1.5
1979-12-16,1.5
1979-12-17,1.5
1979-12-18,1.5
1979-12-19,1.5
1979-12-20,1.5
1979-12-21,1.5
1979-12-22,1.4
1979-12-23,1.5
1979-12-24,1.5
1979-12-25,1.4
1979-12-26,1.4
1979-12-27,1.4
1979-12-28,1.3
1979-12-29,1.4
1979-12-30,1.3
1979-12-31,1.3
1980-01-01,1.3
1980-01-02,1.3
1980-01-03,1.3
1980-01-04,1.3
1980-01-05,1.2
1980-01-06,1.2
1980-01-07,1.2
1980-01-08,1.2
1980-01-09,1.2
1980-01-10,1.2
1980-01-11,1.2
1980-01-12,1.4
1980-01-13,1.5
1980-01-14,1.9
1980-01-15,2.0
1980-01-16,2.1
1980-01-17,2.1
1980-01-18,2.1
1980-01-19,2.1
1980-01-20,2.1
1980-01-21,2.3
1980-01-22,2.0
1980-01-23,1.9
1980-01-24,1.9
1980-01-25,1.8
1980-01-26,1.8
1980-01-27,1.8
1980-01-28,1.8
1980-01-29,1.8
1980-01-30,1.8
1980-01-31,1.7000000000000002
1980-02-01,1.8
1980-02-02,1.7000000000000002
1980-02-03,1.7000000000000002
1980-02-04,1.6
1980-02-05,1.6
1980-02-06,1.6
1980-02-07,1.6
1980-02-08,1.6
1980-02-09,1.5
1980-02-10,1.5
1980-02-11,1.5
1980-02-12,1.5
1980-02-13,1.4
1980-02-14,1.5
1980-02-15,1.5
1980-02-16,1.4
1980-02-17,1.5
1980-02-18,1.4
1980-02-19,1.5
1980-02-20,1.5
1980-02-21,1.4
1980-02-22,1.4
1980-02-23,1.4
1980-02-24,1.4
1980-02-25,1.3
1980-02-26,1.3
1980-02-27,1.3
1980-02-28,1.3
1980-02-29,1.3
1980-03-01,1.3
1980-03-02,1.4
1980-03-03,1.4
1980-03-04,1.4
1980-03-05,1.4
1980-03-06,1.3
1980-03-07,1.3
1980-03-08,1.4
1980-03-09,1.4
1980-03-10,1.3
1980-03-11,1.3
1980-03-12,1.3
1980-03-13,1.3
1980-03-14,1.3
1980-03-15,1.3
1980-03-16,1.3
1980-03-17,1.2
1980-03-18,1.2
1980-03-19,1.3
1980-03-20,1.2
1980-03-21,1.2
1980-03-22,1.2
1980-03-23,1.2
1980-03-24,1.2
1980-03-25,1.2
1980-03-26,1.1
1980-03-27,1.2
1980-03-28,1.1
1980-03-29,1.2
1980-03-30,1.1
1980-03-31,1.1
1980-04-01,1.1
1980-04-02,1.0
1980-04-03,1.1
1980-04-04,1.1
1980-04-05,1.0
1980-04-06,1.1
1980-04-07,1.1
1980-04-08,1.0
1980-04-09,1.0
1980-04-10,1.1
1980-04-11,1.0
1980-04-12,1.0
1980-04-13,1.0
1980-04-14,1.0
1980-04-15,1.0
1980-04-16,1.0
1980-04-17,1.0
1980-04-18,1.0
1980-04-19,1.1
1980-04-20,1.2
1980-04-21,1.2
1980-04-22,1.3
1980-04-23,1.4
1980-04-24,1.7000000000000002
1980-04-25,1.8
1980-04-26,1.9
1980-04-27,2.0
1980-04-28,2.3
1980-04-29,2.6
1980-04-30,3.0
1980-05-01,3.3
1980-05-02,3.3
1980-05-03,3.5
1980-05-04,3.7
1980-05-05,3.8
1980-05-06,4.1
1980-05-07,4.1
1980-05-08,4.3
1980-05-09,4.4
1980-05-10,4.4
1980-05-11,4.4
1980-05-12,4.5
1980-05-13,4.5
1980-05-14,4.5
1980-05-15,4.4
1980-05-16,4.6
1980-05-17,4.8
1980-05-18,4.6
1980-05-19,4.5
1980-05-20,4.6
1980-05-21,4.8
1980-05-22,5.1
1980-05-23,5.6
1980-05-24,5.9
1980-05-25,5.9
1980-05-26,5.9
1980-05-27,5.9
1980-05-28,5.9
1980-05-29,5.6
1980-05-30,5.6
1980-05-31,5.1
1980-06-01,5.1
1980-06-02,5.1
1980-06-03,5.1
1980-06-04,5.1
1980-06-05,5.1
1980-06-06,4.9
1980-06-07,4.9
1980-06-08,4.8
1980-06-09,4.8
1980-06-10,4.8
1980-06-11,4.9
1980-06-12,4.8
1980-06-13,4.9
1980-06-14,4.9
1980-06-15,5.1
1980-06-16,5.1
1980-06-17,5.1
1980-06-18,5.1
1980-06-19,5.1
1980-06-20,5.6
1980-06-21,5.9
1980-06-22,6.2
1980-06-23,6.5
1980-06-24,6.2
1980-06-25,6.5
1980-06-26,6.5
1980-06-27,6.8
1980-06-28,6.8
1980-06-29,6.5
1980-06-30,6.2
1980-07-01,6.2
1980-07-02,6.5
1980-07-03,6.5
1980-07-04,6.5
1980-07-05,6.5
1980-07-06,6.5
1980-07-07,6.5
1980-07-08,6.5
1980-07-09,6.2
1980-07-10,6.2
1980-07-11,6.2
1980-07-12,5.9
1980-07-13,5.9
1980-07-14,5.9
1980-07-15,5.6
1980-07-16,5.4
1980-07-17,5.1
1980-07-18,5.1
1980-07-19,4.9
1980-07-20,4.9
1980-07-21,4.9
1980-07-22,4.8
1980-07-23,4.9
1980-07-24,4.9
1980-07-25,4.8
1980-07-26,4.7
1980-07-27,4.6
1980-07-28,4.5
1980-07-29,4.6
1980-07-30,4.3
1980-07-31,4.0
1980-08-01,3.9
1980-08-02,3.9
1980-08-03,3.9
1980-08-04,3.9
1980-08-05,3.8
1980-08-06,3.8
1980-08-07,3.7
1980-08-08,3.7
1980-08-09,3.7
1980-08-10,3.7
1980-08-11,3.6
1980-08-12,3.4
1980-08-13,3.3
1980-08-14,3.3
1980-08-15,3.3
1980-08-16,3.3
1980-08-17,3.3
1980-08-18,3.2
1980-08-19,3.0
1980-08-20,3.0
1980-08-21,2.9
1980-08-22,2.8
1980-08-23,2.8
1980-08-24,2.7
1980-08-25,2.7
1980-08-26,2.6
1980-08-27,2.6
1980-08-28,2.6
1980-08-29,2.6
1980-08-30,2.5
1980-08-31,2.4
1980-09-01,2.4
1980-09-02,2.4
1980-09-03,2.4
1980-09-04,2.3
1980-09-05,2.3
1980-09-06,2.2
1980-09-07,2.2
1980-09-08,2.3
1980-09-09,2.2
1980-09-10,2.1
1980-09-11,2.2
1980-09-12,2.1
1980-09-13,2.1
1980-09-14,2.1
1980-09-15,2.1
1980-09-16,2.0
1980-09-17,2.1
1980-09-18,2.1
1980-09-19,2.1
1980-09-20,2.1
1980-09-21,2.0
1980-09-22,2.0
1980-09-23,2.0
1980-09-24,2.0
1980-09-25,1.9
1980-09-26,2.0
1980-09-27,2.0
1980-09-28,2.0
1980-09-29,2.0
1980-09-30,1.9
1980-10-01,1.9
1980-10-02,1.9
1980-10-03,1.9
1980-10-04,1.9
1980-10-05,1.9
1980-10-06,1.9
1980-10-07,1.9
1980-10-08,1.9
1980-10-09,1.8
1980-10-10,1.8
1980-10-11,1.8
1980-10-12,1.8
1980-10-13,1.8
1980-10-14,1.7000000000000002
1980-10-15,1.8
1980-10-16,1.7000000000000002
1980-10-17,1.7000000000000002
1980-10-18,1.8
1980-10-19,1.6
1980-10-20,1.7000000000000002
1980-10-21,1.6
1980-10-22,1.6
1980-10-23,1.6
1980-10-24,1.6
1980-10-25,1.6
1980-10-26,1.6
1980-10-27,1.6
1980-10-28,1.5
1980-10-29,1.6
1980-10-30,1.5
1980-10-31,1.3
1980-11-01,1.4
1980-11-02,1.3
1980-11-03,1.4
1980-11-04,1.3
1980-11-05,1.4
1980-11-06,1.3
1980-11-07,1.4
1980-11-08,1.2
1980-11-09,1.4
1980-11-10,1.4
1980-11-11,1.4
1980-11-12,1.3
1980-11-13,1.4
1980-11-14,1.4
1980-11-15,1.3
1980-11-16,1.3
1980-11-17,1.3
1980-11-18,1.3
1980-11-19,1.3
1980-11-20,1.3
1980-11-21,1.3
1980-11-22,1.3
1980-11-23,1.2
1980-11-24,1.3
1980-11-25,1.2
1980-11-26,1.2
1980-11-27,1.2
1980-11-28,1.2
1980-11-29,1.2
1980-11-30,1.2
1980-12-01,1.2
1980-12-02,1.2
1980-12-03,1.3
1980-12-04,1.2
1980-12-05,1.3
1980-12-06,1.3
1980-12-07,1.3
1980-12-08,1.3
1980-12-09,1.2
1980-12-10,1.2
1980-12-11,1.2
1980-12-12,1.2
1980-12-13,1.2
1980-12-14,1.2
1980-12-15,1.2
1980-12-16,1.2
1980-12-17,1.2
1980-12-18,1.2
1980-12-19,1.2
1980-12-20,1.2
1980-12-21,1.2
1980-12-22,1.2
1980-12-23,1.3
1980-12-24,1.3
1980-12-25,1.4
1980-12-26,1.6
1980-12-27,1.8
1980-12-28,1.9
1980-12-29,2.1
1980-12-30,2.2
1980-12-31,2.2
1981-01-01,2.1
1981-01-02,2.2
1981-01-03,2.2
1981-01-04,2.2
1981-01-05,2.2
1981-01-06,2.1
1981-01-07,2.1
1981-01-08,2.1
1981-01-09,2.1
1981-01-10,2.1
1981-01-11,2.1
1981-01-12,2.0
1981-01-13,2.0
1981-01-14,2.0
1981-01-15,1.9
1981-01-16,1.9
1981-01-17,1.9
1981-01-18,1.9
1981-01-19,1.9
1981-01-20,1.9
1981-01-21,1.8
1981-01-22,1.8
1981-01-23,1.8
1981-01-24,1.7000000000000002
1981-01-25,1.7000000000000002
1981-01-26,1.6
1981-01-27,1.6
1981-01-28,1.7000000000000002
1981-01-29,1.6
1981-01-30,1.6
1981-01-31,1.6
1981-02-01,1.5
1981-02-02,1.5
1981-02-03,1.5
1981-02-04,1.4
1981-02-05,1.4
1981-02-06,1.5
1981-02-07,1.6
1981-02-08,1.6
1981-02-09,1.5
1981-02-10,1.5
1981-02-11,1.4
1981-02-12,1.4
1981-02-13,1.5
1981-02-14,1.5
1981-02-15,1.4
1981-02-16,1.4
1981-02-17,1.5
1981-02-18,1.5
1981-02-19,1.6
1981-02-20,1.7000000000000002
1981-02-21,1.8
1981-02-22,1.9
1981-02-23,1.9
1981-02-24,2.0
1981-02-25,2.1
1981-02-26,2.1
1981-02-27,2.1
1981-02-28,2.1
1981-03-01,2.1
1981-03-02,2.1
1981-03-03,2.0
1981-03-04,2.0
1981-03-05,1.9
1981-03-06,1.9
1981-03-07,2.1
1981-03-08,2.1
1981-03-09,2.0
1981-03-10,2.0
1981-03-11,1.9
1981-03-12,2.0
1981-03-13,1.9
1981-03-14,1.9
1981-03-15,1.9
1981-03-16,1.9
1981-03-17,1.9
1981-03-18,1.9
1981-03-19,1.9
1981-03-20,1.8
1981-03-21,1.8
1981-03-22,1.9
1981-03-23,1.9
1981-03-24,1.8
1981-03-25,1.8
1981-03-26,1.8
1981-03-27,1.8
1981-03-28,1.8
1981-03-29,1.8
1981-03-30,1.7000000000000002
1981-03-31,1.7000000000000002
1981-04-01,1.8
1981-04-02,1.8
1981-04-03,1.8
1981-04-04,1.8
1981-04-05,1.6
1981-04-06,1.6
1981-04-07,1.6
1981-04-08,1.6
1981-04-09,1.6
1981-04-10,1.6
1981-04-11,1.6
1981-04-12,1.6
1981-04-13,1.6
1981-04-14,1.6
1981-04-15,1.6
1981-04-16,1.6
1981-04-17,1.6
1981-04-18,1.6
1981-04-19,1.6
1981-04-20,1.7000000000000002
1981-04-21,1.8
1981-04-22,1.8
1981-04-23,1.9
1981-04-24,2.1
1981-04-25,2.2
1981-04-26,2.3
1981-04-27,2.3
1981-04-28,2.3
1981-04-29,2.1
1981-04-30,2.2
1981-05-01,2.9
1981-05-02,3.0
1981-05-03,3.1
1981-05-04,3.1
1981-05-05,3.2
1981-05-06,3.1
1981-05-07,3.2
1981-05-08,3.2
1981-05-09,3.1
1981-05-10,3.0
1981-05-11,3.0
1981-05-12,3.0
1981-05-13,3.0
1981-05-14,3.0
1981-05-15,3.0
1981-05-16,3.2
1981-05-17,3.1
1981-05-18,3.2
1981-05-19,3.2
1981-05-20,3.2
1981-05-21,3.1
1981-05-22,3.1
1981-05-23,3.1
1981-05-24,3.1
1981-05-25,3.1
1981-05-26,3.3
1981-05-27,3.6
1981-05-28,3.7
1981-05-29,3.7
1981-05-30,3.9
1981-05-31,4.0
1981-06-01,4.1
1981-06-02,4.2
1981-06-03,4.2
1981-06-04,4.2
1981-06-05,4.2
1981-06-06,4.2
1981-06-07,4.2
1981-06-08,4.2
1981-06-09,4.2
1981-06-10,4.2
1981-06-11,4.2
1981-06-12,4.2
1981-06-13,4.2
1981-06-14,4.2
1981-06-15,4.1
1981-06-16,4.1
1981-06-17,4.1
1981-06-18,4.0
1981-06-19,4.0
1981-06-20,3.9
1981-06-21,3.9
1981-06-22,3.8
1981-06-23,3.8
1981-06-24,3.8
1981-06-25,3.7
1981-06-26,3.7
1981-06-27,3.7
1981-06-28,3.7
1981-06-29,3.6
1981-06-30,3.5
1981-07-01,3.4
1981-07-02,3.4
1981-07-03,3.4
1981-07-04,3.3
1981-07-05,3.3
1981-07-06,3.3
1981-07-07,3.3
1981-07-08,3.3
1981-07-09,3.3
1981-07-10,3.3
1981-07-11,3.2
1981-07-12,3.2
1981-07-13,3.1
1981-07-14,3.0
1981-07-15,3.0
1981-07-16,2.9
1981-07-17,2.8
1981-07-18,2.8
1981-07-19,2.8
1981-07-20,2.7
1981-07-21,2.6
1981-07-22,2.6
1981-07-23,2.5
1981-07-24,2.3
1981-07-25,2.3
1981-07-26,2.3
1981-07-27,2.3
1981-07-28,2.3
1981-07-29,2.3
1981-07-30,2.3
1981-07-31,2.2
1981-08-01,2.2
1981-08-02,2.2
1981-08-03,2.2
1981-08-04,2.1
1981-08-05,2.0
1981-08-06,2.0
1981-08-07,1.9
1981-08-08,1.9